Printer-friendly version

IAU Minor Planet Center

Minor Planet Center

MPEC 2007-V38 : 2007 VX7

The following Minor Planet Electronic Circular may be linked-to from your own Web pages, but must not otherwise be redistributed electronically.


Read MPEC 2007-V37 Read MPEC 2007-V39


M.P.E.C. 2007-V38                                Issued 2007 Nov. 5, 19:57 UT

     The Minor Planet Electronic Circulars contain information on unusual
         minor planets and routine data on comets.  They are published
   on behalf of Commission 20 of the International Astronomical Union by the
          Minor Planet Center, Smithsonian Astrophysical Observatory,
                          Cambridge, MA 02138, U.S.A.

             Prepared using the Tamkin Foundation Computer Network

                              MPC@CFA.HARVARD.EDU
          URL http://www.cfa.harvard.edu/iau/mpc.html  ISSN 1523-6714

                                   2007 VX7

Observations:
     K07V07X* C2007 11 04.27298 00 59 54.85 +38 35 12.0          19.0 V EV038703
     K07V07X  C2007 11 04.28056 00 59 55.82 +38 34 45.9          19.1 V EV038703
     K07V07X  C2007 11 04.28828 00 59 56.72 +38 34 20.3          19.0 V EV038703
     K07V07X  C2007 11 04.29588 00 59 57.66 +38 33 53.9          19.0 V EV038703
     K07V07X  C2007 11 04.38232 01 00 08.45 +38 28 56.1          18.9 V EV038703
     K07V07X  C2007 11 04.38815 01 00 09.16 +38 28 36.1          18.9 V EV038703
     K07V07X  C2007 11 04.41411 01 00 12.53 +38 27 06.6          18.8 V EV038703
     K07V07X  C2007 11 04.41992 01 00 13.30 +38 26 45.8          18.9 V EV038703
     K07V07X  C2007 11 04.84281 01 01 12.01 +38 02 55.8          18.7 V EV038104
     K07V07X  C2007 11 04.84575 01 01 12.38 +38 02 45.8          18.7 V EV038104
     K07V07X  C2007 11 04.84808 01 01 12.65 +38 02 38.1          18.6 V EV038104
     K07V07X  C2007 11 04.85521 01 01 13.46 +38 02 10.0          19.0   EV038B15
     K07V07X  C2007 11 04.85882 01 01 13.91 +38 01 57.7          19.0   EV038B15
     K07V07X  C2007 11 04.86283 01 01 14.40 +38 01 44.2          19.1   EV038B15
     K07V07X  C2007 11 04.87287 01 01 15.65 +38 01 10.5          19.1   EV038B15
     K07V07X  C2007 11 04.95632 01 01 26.02 +37 56 30.9          18.6 R EV038A24
     K07V07X  C2007 11 04.95783 01 01 26.23 +37 56 25.9          18.4 R EV038A24
     K07V07X  C2007 11 04.95972 01 01 26.49 +37 56 19.1          18.4 R EV038A24
     K07V07X  C2007 11 04.96085 01 01 26.62 +37 56 15.3          18.4 R EV038A24
     K07V07X  C2007 11 04.96237 01 01 26.80 +37 56 10.1          18.3 R EV038A24
     K07V07X  C2007 11 04.96389 01 01 26.97 +37 56 04.9          18.6 R EV038A24
     K07V07X  C2007 11 04.96542 01 01 27.17 +37 55 59.5          18.7 R EV038A24
     K07V07X  C2007 11 04.96695 01 01 27.38 +37 55 54.3          18.7 R EV038A24
     K07V07X  C2007 11 04.96771 01 01 27.52 +37 55 51.7          18.4 R EV038A24
     K07V07X  C2007 11 05.78823 01 03 17.07 +37 09 38.7          19.0 R EV038A17
     K07V07X  C2007 11 05.79575 01 03 18.00 +37 09 14.1          18.9 R EV038A17
     K07V07X  C2007 11 05.80341 01 03 18.98 +37 08 48.4          18.9 R EV038A17

Observer details:
104 San Marcello Pistoiese.  Observers L. Tesi, G. Fagioli, M. Mazzucato.
    Measurer L. Tesi.  0.60-m f/4 reflector + CCD.
703 Catalina Sky Survey.  Observer E. C. Beshore.  Measurers E. C. Beshore,
    A. Boattini, G. J. Garradd, A. R. Gibbs, A. D. Grauer, R. E. Hill,
    R. A. Kowalski, S. M. Larson, R. H. McNaught.  0.68-m Schmidt + CCD.
A17 Guidestar Observatory, Weinheim.  Observers M. Emmerich, S. Melchert.
    0.36-m f/6 Schmidt-Cassegrain + CCD.
A24 New Millennium Observatory, Mozzate.  Observer E. Cozzi.  0.36-m f/7.6
    Schmidt-Cassegrain + CCD.
B15 Inastars Observatory, Potsdam (since 2006).  Observer B. Thinius.  0.36-m
    f/7.5 Schmidt-Cassegrain + CCD.

Orbital elements:
2007 VX7                                                 Earth MOID = 0.3094 AU
Epoch 2007 Oct. 27.0 TT = JDT 2454400.5                 MPC
M  18.95283              (2000.0)            P               Q
n   0.39011568     Peri.  105.07309     +0.94616368     +0.19660176
a   1.8549852      Node   244.15816     -0.26507047     +0.92654419
e   0.3697567      Incl.   16.60148     +0.18577387     +0.32072357
P   2.53           H   19.6           G   0.15           U   8
Residuals in seconds of arc
071104 703  0.0   0.5-    071104 104  0.0   0.0     071104 A24  0.2+  0.2+
071104 703  0.5+  0.6-    071104 104  0.2-  0.1+    071104 A24  0.1+  0.2+
071104 703  0.1-  0.2+    071104 B15  0.2+  0.3-    071104 A24  0.1-  0.1+
071104 703  0.1-  0.2-    071104 B15  0.2+  0.4-    071104 A24  0.0   0.0
071104 703  0.3-  0.0     071104 B15  0.1+  0.4-    071104 A24  0.3+  0.0
071104 703  0.7-  0.2+    071104 B15  0.1+  0.2-    071104 A24  0.8+  0.0
071104 703  0.3-  0.8+    071104 A24  0.3-  0.3+    071105 A17  0.4-  0.3-
071104 703  0.1-  0.1+    071104 A24  0.0   0.5+    071105 A17  0.4-  0.1+
071104 104  0.1-  0.1+    071104 A24  0.3+  0.1+    071105 A17  0.1+  0.1-

Ephemeris:
2007 VX7                 a,e,i = 1.85, 0.37, 17                  q = 1.1691
Date    TT    R. A. (2000) Decl.     Delta      r     Elong.  Phase     V
2007 11 06    01 03.73   +36 57.9    0.337    1.293   149.5    22.9    18.9
2007 11 16    01 23.85   +28 10.2    0.379    1.334   151.1    21.0    19.1
2007 11 26    01 41.74   +21 04.9    0.441    1.377   146.7    23.2    19.6
2007 12 06    01 58.42   +15 58.0    0.522    1.424   139.6    26.6    20.2
2007 12 16    02 14.63   +12 35.0    0.618    1.472   132.1    29.7    20.7
2007 12 26    02 30.81   +10 32.1    0.726    1.521   124.9    32.0    21.2
2008 01 05    02 47.16   +09 26.4    0.846    1.571   118.2    33.5    21.6
2008 01 15    03 03.82   +09 00.4    0.974    1.621   111.8    34.3    22.0

Timothy B. Spahr             (C) Copyright 2007 MPC           M.P.E.C. 2007-V38

Read MPEC 2007-V37 Read MPEC 2007-V39


Our Web policy. Index to the CBAT/MPC/ICQ pages.


Valid HTML 4.01!